Location: Drocourt
(49.0571°N, 1.7669°E)
Time: 21:31:46
(UTC+00:00)

S-56A Canister/Altair - Pass Details

Date: 18 April 2024
Orbit: 638 x 2488 km, 38.9° (Epoch: 20 May)

Event Time Altitude Azimuth Distance (km) Brightness Sun altitude
Rises 22:03:42 0° 270° (W) 4,248 11.7 -25.1°
Reaches altitude 10° 22:06:36 10° 260° (W) 3,524 11.1 -25.4°
Maximum altitude 22:14:29 32° 202° (SSW) 2,788 10.0 -26.0°
Enters shadow 22:15:40 31° 192° (SSW) 2,888 10.0 -26.1°
Drops below altitude 10° 22:25:02 10° 148° (SSE) 4,768 - -26.7°
Sets 22:29:46 0° 140° (SE) 5,965 - -27.0°
